SHARC (42712 NORAD) Tracking and Keplerian Element Data

This shows tracking and keplerian element data for the satellite.

Feedback or suggestion? Click here.




ElementValue
Catalog42712
NameSHARC
Epoch Orbit6606
Epoch Day196.10241702
Epoch Year2018
RAAN223.7559
Inclination51.6354
Eccentricity0.0002747
Argument of Perigee328.8239
Mean Anonmoly31.2593
Mean Motion15.65390046
Decay Rate0.00016605
L11 42712U 98067LT 18196.10241702 .00016605 00000-0 16829-3 0 9995
L22 42712 51.6354 223.7559 0002747 328.8239 31.2593 15.65390046 66060

Live tracking and technical data element details for SHARC (NORAD 42712). SHARC can be tracked NOW for your location showing map with azimuth and elevation plus other details from your city location.

Track the satellite on the map from your city or location and see movement details for azimuth, elevation, latitude, longitude, range, height, and movement on the map or in text.







IsCatalogInMostPopularTable: catalog: 42712, numindb: 86
Update: records affected: 1



GetName: 42712 SHARC

Hit Count: updated at: Sun, 15 Jul 2018 22:54:23 GMT